DW7854 Weather Reports


time (UTC)temp
C
wind
direction
speed
KPH
gust
KPH
rain 1hr
cm
rain 24hr
cm
rain mn
cm
humidity
%
barometer
mb
20260831065601 27 134 1.6 6.4 0.00 0.00 0.00 71 1014.4
20260831064701 27 118 1.6 8.0 0.00 0.00 0.00 70 1014.4
20260831064504 27 109 0.0 8.0 0.00 0.00 0.00 70 1014.2
20260831063008 27 137 0.0 4.8 0.00 0.00 0.00 69 1014.2
20260831062901 27 126 1.6 4.8 0.00 0.00 0.00 69 1014.5
20260831062001 27 129 1.6 9.7 0.00 0.00 0.00 69 1014.6
20260831061610 27 79 1.6 9.7 0.00 0.00 0.00 69 1014.3
20260831061101 27 127 3.2 9.7 0.00 0.00 0.00 68 1014.6
20260831060201 27 128 3.2 9.7 0.00 0.00 0.00 68 1014.6
20260831060112 27 123 3.2 9.7 0.00 0.00 0.00 68 1014.3
20260831055301 27 133 3.2 11.3 0.00 0.00 0.00 68 1014.4
20260831054603 27 155 1.6 11.3 0.00 0.00 0.00 68 1014.1
20260831054401 28 140 4.8 11.3 0.00 0.00 0.00 68 1014.3
20260831053005 28 132 3.2 11.3 0.00 0.00 0.00 68 1014.0
20260831052601 28 135 4.8 11.3 0.00 0.00 0.00 68 1014.2
20260831051606 28 117 4.8 12.9 0.00 0.00 0.00 68 1014.0
20260831050801 28 143 4.8 11.3 0.00 0.00 0.00 68 1014.0
20260831050104 28 144 4.8 11.3 0.00 0.00 0.00 68 1013.8
20260831045901 28 135 4.8 9.7 0.00 0.00 0.00 67 1014.1
20260831045001 28 140 4.8 11.3 0.00 0.00 0.00 67 1014.1
20260831044505 28 138 4.8 11.3 0.00 0.00 0.00 67 1013.9
20260831044101 28 143 4.8 8.0 0.00 0.00 0.00 67 1014.1
20260831043201 28 130 4.8 11.3 0.00 0.00 0.00 66 1014.0
20260831043105 28 128 3.2 11.3 0.00 0.00 0.00 66 1013.8
20260831042301 28 129 3.2 11.3 0.00 0.00 0.00 66 1014.1
20260831041522 28 96 3.2 8.0 0.00 0.00 0.00 65 1013.8
20260831040003 28 128 4.8 12.9 0.00 0.00 0.00 65 1013.6
20260831035601 27 123 3.2 8.0 0.00 0.00 0.00 65 1013.8
20260831034701 27 124 1.6 8.0 0.00 0.00 0.00 66 1013.8
20260831034607 27 138 3.2 11.3 0.00 0.00 0.00 66 1013.5
20260831033801 27 120 1.6 4.8 0.00 0.00 0.00 65 1013.7
20260831033105 27 56 0.0 3.2 0.00 0.00 0.00 65 1013.3
20260831031604 27 49 0.0 1.6 0.00 0.00 0.00 63 1013.2
20260831031101 27 0 0.0 0.0 0.00 0.00 0.00 63 1013.4
20260831030201 27 0 0.0 0.0 0.00 0.00 0.00 61 1013.3
20260831030003 27 49 0.0 0.0 0.00 0.00 0.00 60 1013.1
20260831025301 27 0 0.0 0.0 0.00 0.00 0.00 59 1013.2
20260831024510 27 49 0.0 0.0 0.00 0.00 0.00 58 1012.9
20260831024401 28 0 0.0 0.0 0.00 0.00 0.00 58 1013.1
20260831023501 28 0 0.0 0.0 0.00 0.00 0.00 57 1013.0
20260831023004 27 49 0.0 0.0 0.00 0.00 0.00 56 1012.8
20260831021701 28 0 0.0 0.0 0.00 0.00 0.00 57 1012.8
20260831021605 28 49 0.0 0.0 0.00 0.00 0.00 58 1012.6
20260831020801 28 0 0.0 0.0 0.00 0.00 0.00 56 1012.7
20260831020012 28 49 0.0 0.0 0.00 0.00 0.00 55 1012.3
20260831015901 28 0 0.0 0.0 0.00 0.00 0.00 55 1012.5
20260831015001 29 49 0.0 1.6 0.00 0.00 0.00 55 1012.4
20260831014609 29 49 0.0 3.2 0.00 0.00 0.00 55 1012.1
20260831014101 30 50 1.6 3.2 0.00 0.00 0.00 55 1012.4
20260831013201 30 49 1.6 4.8 0.00 0.00 0.00 52 1012.3
20260831013111 30 49 1.6 4.8 0.00 0.00 0.00 51 1012.1
20260831012305 30 50 1.6 3.2 0.00 0.00 0.00 50 1012.2
20260831011507 31 49 1.6 3.2 0.00 0.00 0.00 48 1012.0
20260831011401 31 49 1.6 3.2 0.00 0.00 0.00 48 1012.2
20260831010122 32 49 0.0 3.2 0.00 0.00 0.00 45 1011.9
20260831004701 33 0 0.0 0.0 0.00 0.00 0.00 42 1012.1
20260831004503 33 44 0.0 0.0 0.00 0.00 0.00 41 1012.0
20260831003801 33 45 0.0 1.6 0.00 0.00 0.00 41 1012.2
20260831003003 33 44 0.0 1.6 0.00 0.00 0.00 40 1012.0
20260831002901 34 44 0.0 1.6 0.00 0.00 0.00 40 1012.2
20260831002001 34 154 0.0 3.2 0.00 0.00 0.00 39 1012.3
20260831001509 34 158 0.0 4.8 0.00 0.00 0.00 38 1012.0
20260831001101 35 144 1.6 4.8 0.00 0.00 0.00 39 1012.2
20260831000203 35 141 1.6 4.8 0.00 0.00 0.00 38 1012.1
20260831000116 35 124 1.6 4.8 0.00 0.00 0.00 37 1011.9
20260830235301 35 151 3.2 6.4 0.00 0.00 0.00 36 1012.1
20260830234606 35 153 3.2 6.4 0.00 0.00 0.00 35 1012.0
20260830234401 35 148 3.2 11.3 0.00 0.00 0.00 35 1012.3
20260830233501 36 148 3.2 11.3 0.00 0.00 0.00 34 1012.2
20260830233103 36 136 3.2 9.7 0.00 0.00 0.00 34 1012.0
20260830232601 36 148 6.4 11.3 0.00 0.00 0.00 33 1012.1
20260830231701 37 150 6.4 11.3 0.00 0.00 0.00 31 1012.2
20260830231508 36 155 4.8 11.3 0.00 0.00 0.00 31 1012.0
20260830230801 37 136 4.8 9.7 0.00 0.00 0.00 30 1012.2
20260830230005 37 145 4.8 12.9 0.00 0.00 0.00 31 1011.9
20260830225901 37 106 4.8 12.9 0.00 0.00 0.00 31 1012.2
20260830224504 37 96 3.2 12.9 0.00 0.00 0.00 32 1012.0
20260830224101 37 126 6.4 12.9 0.00 0.00 0.00 32 1012.2
20260830223201 38 127 6.4 14.5 0.00 0.00 0.00 31 1012.2
20260830223003 37 147 6.4 14.5 0.00 0.00 0.00 30 1012.0
20260830222301 38 94 3.2 12.9 0.00 0.00 0.00 29 1012.2
20260830221606 37 101 1.6 11.3 0.00 0.00 0.00 28 1011.9
20260830221401 38 110 3.2 11.3 0.00 0.00 0.00 30 1012.1
20260830220501 38 129 4.8 11.3 0.00 0.00 0.00 30 1012.2
20260830220003 38 123 4.8 11.3 0.00 0.00 0.00 29 1012.0
20260830214606 37 102 1.6 14.5 0.00 0.00 0.00 25 1012.1
20260830213104 38 120 6.4 17.7 0.00 0.00 0.00 29 1012.3
20260830212901 38 156 8.0 17.7 0.00 0.00 0.00 28 1012.5
20260830212001 38 137 6.4 12.9 0.00 0.00 0.00 29 1012.7
20260830211607 38 67 4.8 12.9 0.00 0.00 0.00 29 1012.6
20260830210201 38 159 4.8 17.7 0.00 0.00 0.00 30 1012.8
20260830210004 38 159 3.2 9.7 0.00 0.00 0.00 28 1012.5
20260830205301 38 136 8.0 14.5 0.00 0.00 0.00 25 1013.0
20260830204605 38 146 6.4 14.5 0.00 0.00 0.00 28 1012.9
20260830204401 38 168 8.0 12.9 0.00 0.00 0.00 29 1013.1
20260830203501 38 179 6.4 14.5 0.00 0.00 0.00 32 1013.3
20260830203003 38 192 4.8 12.9 0.00 0.00 0.00 37 1013.1
20260830202601 38 171 6.4 11.3 0.00 0.00 0.00 36 1013.4
20260830201605 38 153 6.4 12.9 0.00 0.00 0.00 38 1013.1
20260830200801 37 194 4.8 14.5 0.00 0.00 0.00 40 1013.6
20260830200006 37 225 6.4 19.3 0.00 0.00 0.00 39 1013.5
20260830195901 38 170 8.0 19.3 0.00 0.00 0.00 40 1013.7
20260830194609 37 179 1.6 11.3 0.00 0.00 0.00 43 1013.5
20260830194101 37 153 3.2 11.3 0.00 0.00 0.00 42 1013.8
20260830193201 37 187 4.8 11.3 0.00 0.00 0.00 42 1014.0
20260830193004 37 186 4.8 11.3 0.00 0.00 0.00 43 1013.7
20260830192301 37 196 4.8 16.1 0.00 0.00 0.00 43 1014.1
20260830191505 37 247 6.4 16.1 0.00 0.00 0.00 45 1013.8
20260830191401 37 165 4.8 16.1 0.00 0.00 0.00 45 1014.2
20260830190501 36 175 3.2 12.9 0.00 0.00 0.00 44 1014.2
20260830190106 36 101 3.2 12.9 0.00 0.00 0.00 45 1014.0
20260830185601 36 212 4.8 11.3 0.00 0.00 0.00 45 1014.3
20260830184701 37 166 6.4 11.3 0.00 0.00 0.00 45 1014.5
20260830184618 36 164 4.8 12.9 0.00 0.00 0.00 44 1014.2
20260830183801 36 166 8.0 14.5 0.00 0.00 0.00 44 1014.6
20260830183004 36 199 4.8 16.1 0.00 0.00 0.00 48 1014.4
20260830182901 36 162 6.4 16.1 0.00 0.00 0.00 49 1014.6
20260830182001 36 171 6.4 16.1 0.00 0.00 0.00 46 1014.7
20260830181505 36 159 8.0 16.1 0.00 0.00 0.00 48 1014.5
20260830181101 36 157 4.8 12.9 0.00 0.00 0.00 47 1014.8
20260830180201 36 173 6.4 14.5 0.00 0.00 0.00 49 1014.8
20260830180104 36 174 4.8 14.5 0.00 0.00 0.00 49 1014.5
20260830175301 36 165 6.4 16.1 0.00 0.00 0.00 46 1014.9
20260830174538 35 162 9.7 16.1 0.00 0.00 0.00 50 1014.7
20260830174401 35 184 3.2 12.9 0.00 0.00 0.00 53 1015.0
20260830173501 35 184 4.8 12.9 0.00 0.00 0.00 51 1015.1
20260830173107 35 173 6.4 12.9 0.00 0.00 0.00 52 1015.0
20260830172601 35 183 4.8 11.3 0.00 0.00 0.00 52 1015.2
20260830171701 35 170 8.0 14.5 0.00 0.00 0.00 53 1015.4
20260830171510 34 153 8.0 14.5 0.00 0.00 0.00 53 1015.2
20260830170106 34 132 3.2 12.9 0.00 0.00 0.00 55 1015.4
20260830165901 34 170 6.4 12.9 0.00 0.00 0.00 55 1015.7
20260830165001 34 166 6.4 14.5 0.00 0.00 0.00 56 1015.8
20260830164508 33 90 4.8 11.3 0.00 0.00 0.00 56 1015.4
20260830164101 33 165 6.4 11.3 0.00 0.00 0.00 58 1015.7
20260830163201 33 163 6.4 12.9 0.00 0.00 0.00 58 1015.8
20260830163003 33 163 8.0 12.9 0.00 0.00 0.00 60 1015.5
20260830162301 33 173 6.4 12.9 0.00 0.00 0.00 60 1015.8
20260830161605 32 189 9.7 12.9 0.00 0.00 0.00 60 1015.5
20260830161401 33 171 4.8 12.9 0.00 0.00 0.00 60 1015.8
20260830160501 32 176 4.8 11.3 0.00 0.00 0.00 63 1015.8
20260830160009 32 175 1.6 11.3 0.00 0.00 0.00 62 1015.6
20260830155601 32 173 6.4 11.3 0.00 0.00 0.00 62 1016.0
20260830154701 31 181 3.2 11.3 0.00 0.00 0.00 64 1016.0
20260830154604 31 184 1.6 11.3 0.00 0.00 0.00 64 1015.7
20260830153009 31 180 4.8 9.7 0.00 0.00 0.00 64 1015.9
20260830152901 31 188 4.8 9.7 0.00 0.00 0.00 64 1016.1
20260830152001 31 189 3.2 9.7 0.00 0.00 0.00 65 1016.2
20260830151612 30 162 1.6 8.0 0.00 0.00 0.00 65 1016.0
20260830150201 30 146 3.2 8.0 0.00 0.00 0.00 68 1016.3
20260830150106 30 207 0.0 8.0 0.00 0.00 0.00 67 1016.1
20260830145301 30 158 4.8 9.7 0.00 0.00 0.00 68 1016.4
20260830144604 29 212 3.2 12.9 0.00 0.00 0.00 67 1016.2
20260830144401 29 168 6.4 12.9 0.00 0.00 0.00 68 1016.5
20260830143501 29 178 6.4 11.3 0.00 0.00 0.00 68 1016.5
20260830143014 28 154 4.8 9.7 0.00 0.00 0.00 68 1016.2
20260830142601 28 174 4.8 9.7 0.00 0.00 0.00 69 1016.4
20260830141701 28 160 3.2 6.4 0.00 0.00 0.00 70 1016.5
20260830141503 27 159 1.6 8.0 0.00 0.00 0.00 70 1016.3
20260830140801 27 132 1.6 6.4 0.00 0.00 0.00 71 1016.4
20260830140104 26 76 1.6 8.0 0.00 0.00 0.00 71 1016.3
20260830135001 26 109 1.6 4.8 0.00 0.00 0.00 73 1016.4
20260830134605 25 76 1.6 4.8 0.00 0.00 0.00 74 1016.2
20260830134101 25 85 1.6 4.8 0.00 0.00 0.00 74 1016.6
20260830133201 24 71 0.0 3.2 0.00 0.00 0.00 76 1016.5
20260830133108 24 22 0.0 3.2 0.00 0.00 0.00 76 1016.3
20260830132301 23 47 1.6 4.8 0.00 0.00 0.00 78 1016.5
20260830131603 23 46 0.0 4.8 0.00 0.00 0.00 79 1016.3
20260830131401 23 62 0.0 3.2 0.00 0.00 0.00 80 1016.5
20260830130501 22 39 0.0 4.8 0.00 0.00 0.00 81 1016.3
20260830130115 22 71 0.0 4.8 0.00 0.00 0.00 81 1016.1
20260830125601 22 26 1.6 4.8 0.00 0.00 0.00 81 1016.3
20260830124701 22 27 1.6 4.8 0.00 0.00 0.00 82 1016.2
20260830124603 21 54 1.6 6.4 0.00 0.00 0.00 82 1016.1
20260830123801 21 9 1.6 4.8 0.00 0.00 0.00 83 1016.2
20260830123007 21 22 0.0 6.4 0.00 0.00 0.00 83 1016.0
20260830122901 21 4 1.6 6.4 0.00 0.00 0.00 83 1016.2
20260830122001 21 20 1.6 4.8 0.00 0.00 0.00 83 1016.1
20260830121503 21 5 1.6 4.8 0.00 0.00 0.00 83 1015.8
20260830121101 21 25 1.6 4.8 0.00 0.00 0.00 83 1016.0
20260830120200 21 10 1.6 4.8 0.00 0.00 0.00 83 1015.9
20260830120005 21 16 0.0 4.8 0.00 0.00 0.00 83 1015.6
20260830114604 21 5 1.6 4.8 0.00 0.00 0.00 84 1015.5
20260830114401 21 6 1.6 4.8 0.00 0.00 0.00 84 1015.7
20260830113501 21 7 1.6 4.8 0.00 0.00 0.00 84 1015.6
20260830113103 21 5 1.6 4.8 0.00 0.00 0.00 84 1015.3
20260830112601 21 17 0.0 3.2 0.00 0.00 0.00 84 1015.4
20260830111700 21 12 1.6 3.2 0.00 0.00 0.00 84 1015.4
20260830111606 21 41 0.0 4.8 0.00 0.00 0.00 84 1015.2
20260830110801 21 0 0.0 0.0 0.00 0.00 0.00 84 1015.5
20260830110002 21 5 0.0 0.0 0.00 0.00 0.00 83 1015.2
20260830105900 21 0 0.0 0.0 0.00 0.00 0.00 83 1015.4
20260830105001 21 0 0.0 0.0 0.00 0.00 0.00 84 1015.3
20260830104604 21 5 0.0 0.0 0.00 0.00 0.00 84 1015.0
20260830104100 21 0 0.0 0.0 0.00 0.00 0.00 84 1015.2
20260830103201 21 0 0.0 0.0 0.00 0.00 0.00 84 1015.1
20260830103105 21 28 0.0 0.0 0.00 0.00 0.00 84 1014.8
20260830102300 21 0 0.0 0.0 0.00 0.00 0.00 83 1015.0
20260830101503 21 31 0.0 1.6 0.00 0.00 0.00 83 1014.8
20260830101401 21 30 0.0 1.6 0.00 0.00 0.00 83 1015.0
20260830100500 21 48 0.0 3.2 0.00 0.00 0.00 83 1015.0
20260830100110 21 43 0.0 1.6 0.00 0.00 0.00 83 1014.9
20260830095600 21 33 1.6 3.2 0.00 0.00 0.00 82 1015.1
20260830094701 21 46 1.6 3.2 0.00 0.00 0.00 82 1015.0
20260830094603 21 65 0.0 3.2 0.00 0.00 0.00 82 1014.8
20260830093800 21 10 0.0 4.8 0.00 0.00 0.00 81 1015.0
20260830093008 21 5 0.0 1.6 0.00 0.00 0.00 80 1014.9
20260830092900 22 19 0.0 3.2 0.00 0.00 0.00 80 1015.1
20260830092000 22 8 0.0 3.2 0.00 0.00 0.00 80 1015.1
20260830091604 22 22 0.0 1.6 0.00 0.00 0.00 80 1015.0
20260830091100 22 15 0.0 3.2 0.00 0.00 0.00 79 1015.1
20260830090201 22 37 1.6 3.2 0.00 0.00 0.00 79 1015.1
20260830090005 22 63 0.0 3.2 0.00 0.00 0.00 79 1014.8
20260830085301 22 26 0.0 3.2 0.00 0.00 0.00 79 1015.1
20260830084636 22 22 0.0 3.2 0.00 0.00 0.00 78 1014.9
20260830084400 22 42 0.0 3.2 0.00 0.00 0.00 79 1015.0
20260830083500 22 34 0.0 3.2 0.00 0.00 0.00 79 1015.0
20260830083002 21 44 0.0 1.6 0.00 0.00 0.00 79 1014.9
20260830082600 22 28 0.0 1.6 0.00 0.00 0.00 79 1015.1
20260830081701 22 0 0.0 0.0 0.00 0.00 0.00 78 1015.0
20260830081508 21 219 0.0 0.0 0.00 0.00 0.00 79 1014.8
20260830080801 21 0 0.0 0.0 0.00 0.00 0.00 77 1015.0
20260830080008 21 57 0.0 0.0 0.00 0.00 0.00 77 1014.9
20260830075900 22 0 0.0 0.0 0.00 0.00 0.00 76 1015.1
20260830075001 22 0 0.0 0.0 0.00 0.00 0.00 76 1015.2
20260830074628 21 57 0.0 0.0 0.00 0.00 0.00 75 1015.0
20260830074100 22 58 0.0 1.6 0.00 0.00 0.00 75 1015.2
20260830073201 22 58 0.0 1.6 0.00 0.00 0.00 74 1015.3
20260830073003 22 57 0.0 1.6 0.00 0.00 0.00 74 1015.0
20260830072300 22 58 0.0 1.6 0.00 0.00 0.00 73 1015.4
20260830071505 22 57 0.0 1.6 0.00 0.00 0.00 72 1015.1
20260830071400 22 58 0.0 1.6 0.00 0.00 0.00 72 1015.3
20260830070500 22 58 0.0 1.6 0.00 0.00 0.00 71 1015.3
20260830070002 22 57 0.0 1.6 0.00 0.00 0.00 71 1015.2